Temp
94 96 95 97 96 99 100 96 97 96 96 98 97 97 97 97 99 100 95 82 81 81 82 81 81 80 80 79 79 79 79 78 78 79 79 79 79 79 78 75 77 79 79
94 97 96 97 99 99 99 97 94 95 96 100 97 97 95 98 97 96 98 88 81 81 81 81 81 81 80 80 79 79 79 78 78 78 78 78 78 78 77 75 75 76 78
94 92 96 97 98 97 95 97 95 98 97 98 96 97 97 95 97 94 96 91 80 81 81 81 80 80 80 80 79 78 77 77 77 77 77 77 76 76 78 77 74 74 75
95 94 98 97 96 97 98 97 96 96 97 98 96 97 98 96 93 93 94 93 88 90 81 80 80 80 80 79 78 78 77 76 76 76 76 76 76 77 76 77 74 75 74
97 94 97 97 95 98 97 95 94 92 93 94 96 97 96 95 94 95 92 90 91 89 76 81 79 79 80 79 78 77 76 76 76 75 75 75 76 76 76 77 75 74 75
97 95 96 95 96 97 96 94 89 92 91 91 95 96 95 95 95 92 92 89 86 85 87 81 83 81 80 79 78 77 76 76 75 75 75 75 75 75 75 75 75 75 76
98 95 96 96 96 93 90 90 92 90 92 91 91 94 95 95 93 94 94 85 85 83 83 79 80 78 79 77 76 75 75 75 75 75 74 74 74 74 74 75 75 74 74
97 96 94 95 92 96 90 89 88 91 92 89 87 89 87 90 94 95 93 92 84 84 81 80 82 81 79 76 75 70 71 71 73 74 73 73 73 73 74 74 74 74 73
96 94 94 93 94 94 95 90 89 86 88 90 84 85 83 82 86 91 88 88 85 83 80 77 79 77 72 70 69 69 68 68 71 72 72 72 72 73 73 74 74 74 74
95 96 94 94 92 96 91 92 90 87 85 86 90 87 83 81 81 82 89 85 87 84 81 85 77 69 67 67 66 66 66 68 71 70 71 72 72 72 73 74 74 74 74
95 97 95 94 91 96 92 90 88 84 89 86 86 85 84 87 83 81 80 84 88 85 82 73 70 64 65 65 65 67 67 69 69 69 69 71 71 72 73 74 74 75 75
99 96 96 94 92 92 91 92 89 85 83 84 85 85 85 83 83 82 81 81 80 81 76 70 66 65 69 67 67 68 69 69 68 68 68 69 70 70 72 74 75 76 76
97 96 93 92 95 92 92 91 89 87 86 85 81 86 87 85 85 84 82 82 81 82 74 71 66 66 70 66 67 70 69 68 68 67 67 67 68 69 70 72 73 73 75
96 95 93 94 94 93 93 91 92 90 86 88 83 81 85 86 84 84 82 79 79 83 70 70 65 65 67 71 73 69 70 67 67 67 66 66 67 67 69 70 70 70 69
95 93 93 93 94 93 92 90 92 87 86 84 85 83 83 86 84 85 84 82 78 75 78 72 62 63 64 69 73 73 75 65 66 66 65 65 65 66 67 68 69 69 68
90 91 91 91 92 92 91 90 91 89 83 87 87 82 81 85 82 85 84 83 82 78 76 74 65 63 63 74 72 73 72 68 66 65 65 65 64 65 65 66 66 67 67
90 89 89 90 90 91 91 89 88 87 85 84 83 82 81 80 78 84 84 83 82 80 76 66 63 63 66 70 74 75 76 73 69 65 64 64 63 63 64 65 65 66 66
90 89 89 89 89 89 90 89 88 89 86 83 83 81 81 85 77 77 84 76 77 79 74 66 63 67 66 72 72 71 73 78 75 67 63 63 63 63 63 63 63 63 63
90 91 90 88 88 89 88 88 87 88 87 83 85 82 82 80 78 78 78 80 81 81 79 73 67 71 73 75 72 74 74 73 74 64 66 63 63 63 63 62 61 61 60
90 90 90 89 89 90 89 89 88 87 87 82 85 83 82 80 77 76 79 76 77 78 75 75 70 67 75 73 74 74 75 79 67 61 63 62 63 62 62 62 62 61 59
92 91 90 90 90 90 92 89 89 87 86 80 80 82 82 78 70 71 81 76 74 77 78 76 69 69 73 74 70 75 75 64 58 58 57 59 58 58 60 62 64 64 61
91 90 89 87 88 93 78 71 79 84 84 81 76 80 76 71 68 65 65 64 69 73 73 78 73 69 68 73 74 71 71 64 59 61 55 56 59 58 59 61 63 63 62
83 87 88 88 87 88 66 66 68 80 81 81 79 78 80 81 73 73 64 63 64 64 66 74 70 70 69 71 70 71 66 64 58 58 55 55 58 58 59 61 62 61 60
86 85 85 85 84 72 64 64 65 74 75 78 81 78 81 75 76 75 76 75 74 73 73 78 73 71 72 73 73 72 70 65 69 61 57 54 58 57 59 60 60 60 59
85 83 80 77 81 80 63 62 68 72 72 72 76 78 79 77 65 64 75 72 71 71 61 60 59 59 60 61 65 76 76 64 72 66 61 56 58 57 59 59 59 59 59
84 86 81 80 72 79 60 58 67 72 69 69 70 75 65 74 60 61 75 73 70 70 71 69 69 63 66 65 64 73 78 73 73 72 71 61 62 58 58 60 61 64 64
MSLP
1014.87 1014.57 1014.44 1014.11 1014.06 1013.74 1013.28 1013.46 1013.17 1013.34 1013.34 1013.23 1013.38 1013.47 1013.70 1013.47 1013.39 1013.57 1014.27 1015.95 1016.24 1016.30 1016.37 1016.49 1016.53 1016.55 1016.56 1016.54 1016.58 1016.69 1016.89 1016.93 1017.00 1017.11 1017.20 1017.40 1017.73 1018.19 1018.60 1018.95 1019.47 1019.97 1020.05
1014.92 1014.45 1014.26 1013.93 1013.58 1013.74 1013.58 1013.52 1013.61 1013.50 1013.23 1012.96 1013.29 1013.35 1013.45 1013.15 1013.50 1013.66 1013.77 1015.24 1016.01 1016.20 1016.30 1016.30 1016.40 1016.53 1016.76 1016.91 1016.95 1017.05 1017.05 1017.23 1017.30 1017.38 1017.41 1017.44 1017.36 1017.77 1018.23 1018.97 1019.85 1020.12 1020.29
1015.02 1015.11 1014.39 1014.05 1013.81 1013.93 1013.78 1013.25 1013.50 1013.16 1013.09 1013.08 1013.09 1013.03 1012.92 1013.21 1013.16 1013.74 1013.93 1014.48 1015.71 1016.27 1016.50 1016.61 1016.46 1016.65 1016.76 1016.72 1016.94 1017.18 1017.40 1017.43 1017.47 1017.54 1017.55 1017.59 1017.67 1017.70 1017.71 1018.40 1019.08 1019.32 1020.44
1015.04 1014.79 1014.22 1014.08 1014.24 1013.75 1013.47 1013.52 1013.53 1013.12 1013.03 1012.85 1012.78 1012.73 1012.65 1012.95 1013.33 1013.81 1013.81 1014.35 1014.87 1014.77 1016.23 1016.17 1016.56 1016.36 1016.62 1016.89 1017.03 1017.21 1017.45 1017.56 1017.66 1017.69 1017.74 1017.82 1017.74 1017.73 1017.70 1017.81 1018.49 1019.53 1019.92
1014.87 1015.04 1014.48 1014.21 1014.41 1013.66 1013.87 1013.98 1013.91 1013.97 1013.41 1013.28 1012.83 1012.66 1012.94 1012.88 1013.21 1013.07 1013.53 1014.12 1014.14 1014.69 1015.67 1016.20 1016.19 1016.81 1016.73 1016.78 1017.07 1017.28 1017.58 1017.69 1017.81 1017.85 1017.91 1017.97 1017.88 1017.95 1018.00 1017.82 1018.42 1018.70 1019.74
1014.90 1014.97 1014.78 1014.73 1014.33 1013.95 1013.98 1014.43 1014.51 1014.24 1014.05 1013.74 1013.11 1012.53 1012.71 1012.80 1012.76 1013.15 1013.27 1014.06 1014.53 1015.07 1015.17 1015.80 1015.85 1016.27 1016.85 1017.10 1016.92 1017.41 1017.63 1017.91 1018.15 1018.04 1018.06 1018.03 1018.10 1018.19 1018.18 1018.29 1018.27 1018.83 1019.54
1014.75 1014.98 1014.50 1014.51 1014.16 1014.60 1014.94 1014.79 1014.34 1014.08 1013.77 1014.05 1013.18 1012.42 1012.31 1012.73 1012.86 1012.91 1012.93 1014.24 1014.42 1014.81 1015.10 1015.72 1016.31 1016.51 1016.72 1017.11 1017.38 1017.62 1017.65 1017.86 1018.16 1018.24 1018.32 1018.17 1018.26 1018.13 1018.35 1018.27 1018.46 1018.72 1019.12
1014.80 1014.79 1014.94 1014.68 1014.94 1014.23 1014.88 1014.93 1014.94 1014.04 1013.90 1014.49 1013.79 1012.81 1012.25 1012.30 1012.52 1012.83 1013.04 1013.33 1014.07 1014.59 1015.10 1015.57 1015.56 1015.79 1016.10 1016.62 1017.08 1018.07 1018.38 1018.17 1018.40 1018.31 1018.43 1018.37 1018.35 1018.26 1018.17 1018.31 1018.27 1018.51 1018.80
1014.76 1014.86 1014.89 1014.85 1014.86 1014.42 1014.39 1014.84 1014.98 1014.87 1014.21 1014.19 1014.80 1014.12 1013.10 1012.77 1012.83 1012.92 1013.47 1013.73 1014.32 1014.76 1015.38 1015.51 1015.43 1015.96 1016.69 1017.21 1017.62 1017.96 1018.25 1018.11 1018.68 1018.15 1018.55 1018.48 1018.27 1018.31 1017.96 1018.20 1018.27 1018.39 1018.58
1014.68 1014.61 1014.78 1014.74 1014.82 1014.56 1014.90 1014.78 1015.12 1015.16 1015.14 1014.43 1014.23 1014.75 1015.01 1014.66 1013.60 1012.68 1012.91 1014.04 1014.47 1014.84 1015.32 1014.85 1015.79 1016.74 1017.25 1017.78 1018.14 1018.07 1017.66 1018.19 1018.11 1018.09 1018.34 1018.41 1018.21 1018.05 1017.85 1017.91 1018.18 1018.17 1018.42
1014.55 1014.34 1014.48 1014.54 1014.83 1014.34 1014.68 1014.97 1015.21 1015.51 1015.04 1015.08 1014.81 1014.79 1014.61 1014.21 1014.54 1013.97 1013.08 1013.15 1013.57 1014.66 1015.51 1016.64 1016.95 1017.50 1017.68 1017.94 1018.19 1018.01 1017.76 1017.55 1017.79 1018.11 1018.08 1017.98 1018.04 1017.93 1017.52 1017.50 1017.96 1017.94 1018.06
1014.01 1014.13 1014.11 1014.24 1014.32 1014.47 1014.56 1014.62 1015.10 1015.33 1015.46 1015.49 1015.26 1015.03 1014.58 1014.34 1014.07 1013.95 1013.40 1013.29 1013.78 1014.53 1016.45 1017.53 1017.68 1017.77 1017.76 1018.06 1018.23 1018.30 1018.09 1018.26 1018.15 1018.25 1018.09 1018.08 1017.94 1017.62 1017.28 1017.30 1017.47 1017.70 1017.89
1013.70 1013.86 1014.35 1014.26 1013.95 1014.01 1014.20 1014.47 1014.77 1015.02 1015.10 1015.11 1015.38 1014.87 1014.77 1014.67 1014.66 1014.28 1013.84 1013.46 1013.48 1014.25 1016.18 1017.29 1018.04 1017.93 1017.86 1018.12 1018.12 1018.20 1018.24 1018.47 1018.57 1018.44 1018.07 1017.87 1017.99 1017.88 1017.64 1017.38 1017.41 1017.59 1017.68
1013.78 1013.97 1014.20 1013.96 1013.77 1013.72 1013.92 1014.22 1014.36 1014.69 1015.07 1014.84 1015.09 1015.33 1014.87 1014.79 1014.82 1014.61 1014.22 1014.00 1013.42 1013.13 1015.37 1016.49 1018.03 1018.21 1018.20 1017.83 1017.86 1018.12 1018.05 1018.33 1018.44 1018.46 1018.24 1018.19 1018.06 1017.87 1017.63 1017.60 1017.68 1017.77 1017.92
1013.83 1013.93 1014.01 1013.85 1013.69 1013.73 1013.83 1014.00 1013.99 1014.62 1014.84 1014.89 1014.85 1015.19 1015.12 1014.84 1014.85 1014.66 1014.44 1014.25 1014.08 1013.35 1013.46 1015.90 1017.79 1018.34 1018.37 1018.04 1017.69 1017.51 1017.21 1018.16 1018.22 1018.13 1018.27 1018.15 1018.00 1017.98 1017.87 1017.81 1017.87 1018.01 1018.01
1013.86 1013.79 1013.80 1013.72 1013.54 1013.63 1013.87 1013.85 1013.76 1014.10 1014.54 1014.48 1014.48 1014.80 1014.98 1014.84 1014.92 1014.67 1014.45 1014.24 1014.27 1014.00 1013.76 1015.73 1017.41 1018.26 1018.40 1017.75 1017.80 1017.42 1017.36 1017.68 1017.92 1018.10 1018.06 1017.90 1017.92 1017.97 1018.07 1018.01 1017.98 1018.07 1018.12
1013.52 1013.45 1013.36 1013.36 1013.41 1013.38 1013.42 1013.56 1013.61 1013.98 1014.09 1014.29 1014.54 1014.59 1014.75 1015.05 1015.01 1014.51 1014.51 1014.33 1014.21 1014.20 1013.92 1016.59 1017.64 1018.11 1018.05 1017.53 1017.09 1017.07 1016.85 1016.80 1017.40 1017.75 1017.89 1017.81 1017.82 1017.92 1017.96 1017.95 1017.96 1017.97 1018.01
1013.18 1013.13 1012.99 1012.83 1012.78 1012.93 1013.04 1013.14 1013.33 1013.28 1013.68 1013.97 1014.13 1014.36 1014.62 1014.75 1015.29 1015.12 1014.45 1015.02 1014.64 1014.53 1014.71 1015.97 1017.44 1017.54 1017.54 1017.27 1017.25 1017.08 1016.87 1016.22 1016.58 1017.43 1017.66 1017.55 1017.41 1017.40 1017.39 1017.42 1017.51 1017.89 1018.12
1012.70 1012.57 1012.54 1012.50 1012.34 1012.50 1012.56 1012.77 1013.02 1013.05 1013.23 1013.56 1013.55 1014.22 1014.46 1014.93 1015.24 1014.97 1015.03 1014.63 1014.44 1014.47 1014.55 1015.41 1016.54 1016.95 1016.78 1016.94 1016.76 1016.66 1016.67 1016.51 1016.74 1017.43 1017.17 1017.33 1017.14 1016.93 1016.83 1016.83 1016.90 1017.22 1017.81
1012.23 1012.20 1012.17 1012.08 1012.07 1012.08 1012.14 1012.23 1012.40 1012.58 1012.85 1013.34 1013.34 1013.89 1014.42 1014.69 1015.21 1015.30 1015.22 1015.22 1015.01 1014.71 1015.03 1015.19 1016.04 1016.55 1016.44 1016.75 1016.51 1015.99 1015.63 1015.83 1016.96 1017.40 1017.02 1016.95 1016.80 1016.55 1016.36 1016.19 1016.17 1016.45 1016.98
1011.56 1011.58 1011.67 1011.70 1011.76 1011.86 1011.71 1011.96 1012.10 1012.35 1012.57 1013.17 1013.47 1013.66 1014.24 1014.71 1015.55 1015.60 1015.18 1015.54 1015.43 1014.80 1014.62 1014.70 1015.87 1016.02 1015.86 1015.94 1016.23 1016.03 1015.62 1016.80 1017.56 1017.80 1017.13 1016.63 1016.25 1015.82 1015.44 1015.14 1015.06 1015.27 1015.95
1011.01 1010.93 1010.72 1010.96 1011.12 1011.08 1011.02 1011.45 1011.85 1012.26 1012.53 1012.96 1013.53 1013.57 1014.52 1015.36 1015.94 1016.25 1016.10 1016.51 1016.28 1015.52 1015.20 1014.69 1015.31 1015.93 1016.20 1016.15 1016.39 1016.31 1016.29 1017.13 1017.66 1017.58 1017.37 1016.57 1015.95 1015.46 1014.76 1014.28 1014.04 1014.02 1014.83
1011.09 1010.50 1010.37 1010.34 1010.58 1010.94 1011.52 1011.51 1011.71 1012.25 1012.59 1012.91 1013.55 1013.94 1014.16 1014.86 1016.03 1016.40 1016.65 1016.78 1017.00 1016.52 1015.99 1015.66 1015.77 1016.06 1016.44 1016.52 1016.82 1016.38 1017.01 1017.38 1017.81 1017.92 1017.70 1016.65 1016.10 1015.44 1014.72 1013.70 1013.17 1013.69 1014.62
1010.45 1010.39 1010.26 1010.24 1010.48 1011.76 1011.85 1011.57 1011.67 1012.48 1011.77 1013.06 1013.69 1014.21 1013.89 1014.97 1015.58 1016.08 1016.15 1016.62 1016.60 1016.88 1016.72 1015.79 1016.23 1016.63 1016.92 1017.04 1016.85 1016.90 1016.95 1017.32 1017.39 1017.82 1017.68 1017.11 1016.27 1015.79 1015.10 1014.45 1014.13 1014.31 1015.02
1010.67 1010.33 1010.70 1010.88 1011.11 1011.18 1012.30 1012.07 1011.71 1011.71 1011.10 1013.00 1014.15 1014.50 1014.33 1014.76 1015.63 1016.21 1016.32 1016.56 1016.77 1017.15 1017.45 1017.40 1017.73 1017.99 1017.68 1017.93 1017.73 1016.66 1016.16 1016.89 1016.36 1016.96 1017.28 1017.12 1016.65 1016.36 1015.93 1015.68 1015.61 1015.75 1016.24
1010.40 1010.08 1010.60 1010.85 1011.43 1010.81 1011.49 1011.51 1011.10 1011.05 1011.05 1012.26 1014.28 1014.93 1015.69 1014.80 1015.61 1016.37 1016.52 1016.61 1016.62 1016.91 1017.01 1017.48 1017.98 1018.25 1018.07 1018.19 1018.04 1017.22 1016.27 1015.86 1016.19 1015.81 1016.71 1017.02 1016.63 1016.69 1016.58 1016.92 1016.67 1016.90 1017.30
Wind_Speed
3 3 4 5 4 3 2 4 3 4 3 3 4 3 2 6 6 3 8 11 9 10 11 12 11 11 11 12 9 7 7 5 3 2 7 10 13 16 16 9 9 14 14
3 3 3 4 3 3 4 5 6 4 4 2 4 4 4 4 5 4 3 10 11 10 10 12 11 11 13 12 11 11 11 10 9 9 8 6 5 15 19 20 14 10 12
3 5 4 5 4 4 6 4 4 2 4 4 3 4 5 4 6 6 6 9 9 9 7 8 11 12 11 12 12 12 11 10 9 9 9 8 5 2 16 25 24 17 9
3 4 4 5 6 4 5 5 5 4 3 3 4 5 3 3 5 5 5 5 6 9 9 11 9 13 11 11 11 11 10 10 10 9 8 7 8 4 6 22 28 21 19
3 5 7 5 5 5 4 5 4 5 5 5 6 4 3 5 6 7 6 7 5 5 5 11 11 9 12 12 11 10 9 9 8 8 8 8 6 6 4 15 22 28 24
3 4 4 5 7 5 5 7 5 5 4 5 7 5 4 4 5 4 5 6 5 7 10 8 9 9 10 9 12 10 9 8 7 7 6 6 5 3 2 6 17 23 22
1 1 5 4 5 6 6 5 5 3 5 6 6 5 3 3 4 5 4 4 5 6 5 3 5 3 7 9 9 10 10 9 7 7 6 5 4 2 2 2 12 20 21
1 3 2 3 5 3 4 4 5 7 4 6 6 4 4 4 2 3 6 3 4 3 3 5 6 9 7 4 10 10 7 10 6 7 7 6 5 2 1 4 6 15 17
3 4 4 4 2 5 6 5 6 7 6 4 5 5 4 5 7 3 3 6 6 2 3 3 4 2 5 6 4 5 11 12 6 8 6 5 3 4 4 5 6 11 17
4 4 4 3 4 6 4 5 6 6 7 6 3 4 4 4 5 4 3 4 2 3 3 5 9 9 8 6 6 4 6 5 6 7 6 4 4 4 6 6 9 9 11
4 3 3 4 4 7 5 4 4 5 4 6 6 6 4 2 1 6 6 5 2 5 9 4 6 6 5 4 3 5 5 5 3 5 5 8 6 4 5 9 10 11 12
3 3 3 4 4 4 3 4 3 4 4 5 5 4 5 5 6 5 6 6 4 6 8 5 5 3 4 4 3 6 4 1 2 3 4 5 7 7 6 9 11 12 13
5 2 4 5 6 4 5 1 2 2 2 3 4 5 3 4 4 4 5 6 4 3 6 5 2 2 4 2 4 3 7 4 2 2 3 6 8 7 3 4 6 4 8
5 2 5 7 7 6 5 3 5 2 2 2 3 4 5 4 3 4 5 6 7 1 6 7 3 3 2 1 4 5 7 5 2 2 4 4 7 8 5 4 5 5 4
7 8 6 7 6 6 6 4 6 3 3 3 1 1 4 3 3 4 4 4 5 6 2 7 3 3 1 1 3 5 3 8 2 5 5 4 5 6 7 4 3 3 3
8 8 7 8 8 7 7 6 5 4 4 4 3 1 3 2 2 3 5 4 3 6 3 4 4 4 3 3 2 6 4 7 8 2 5 7 5 4 3 1 1 1 2
10 10 10 9 9 9 8 8 8 6 6 5 5 3 3 1 2 5 5 3 3 4 1 5 3 3 5 4 2 4 2 7 10 8 6 5 3 3 3 4 3 3 2
11 11 11 11 11 10 10 10 10 7 7 6 7 5 4 2 1 1 4 4 5 1 5 7 4 4 4 2 3 4 4 4 7 10 7 7 7 6 4 4 5 4 5
12 12 12 13 12 10 10 10 10 10 9 7 7 5 3 3 2 3 4 3 2 2 3 5 4 3 2 1 2 3 2 3 5 9 6 6 7 7 8 8 8 8 9
12 13 12 14 13 11 11 10 10 9 9 7 6 5 5 4 4 3 2 1 2 3 3 7 4 4 2 3 2 3 2 2 6 5 5 5 10 11 11 12 13 13 11
11 11 12 13 13 11 10 11 10 9 7 7 6 6 6 7 7 5 3 1 3 3 3 5 4 2 4 3 1 3 3 7 2 3 4 4 5 6 5 10 13 19 17
9 11 11 10 13 10 8 8 9 7 7 7 7 7 9 11 7 7 10 10 8 3 2 1 8 2 4 3 4 4 8 5 3 3 4 4 6 5 5 5 7 7 19
9 11 10 10 10 11 7 3 5 4 6 6 7 7 9 9 9 8 9 7 6 7 8 2 5 3 4 5 3 2 5 3 1 3 3 4 5 7 8 7 5 14 21
13 9 9 8 4 6 4 5 9 5 4 7 7 8 8 12 10 9 8 6 8 8 5 5 6 5 4 3 2 3 4 3 2 2 2 3 4 5 8 7 14 19 21
10 7 4 3 3 7 6 8 7 8 13 1 5 6 9 11 12 7 8 8 8 8 10 14 13 9 10 9 10 5 3 4 2 3 1 2 3 3 8 8 10 18 19
8 7 6 4 6 10 12 14 10 6 10 7 4 2 8 10 14 10 8 8 8 8 10 10 9 7 5 5 5 7 2 4 3 3 9 4 6 3 4 8 9 9 10
Wind_Direction
355 326 356 316 316 334 296 297 332 341 332 247 233 210 173 223 141 148 119 133 130 118 108 101 96 94 89 89 95 92 95 81 62 334 250 236 223 215 198 205 242 247 225
4 360 337 339 349 311 358 317 1 319 310 300 181 243 218 222 201 155 158 136 138 127 127 122 121 110 96 88 83 77 75 66 55 46 45 31 231 202 195 190 225 257 248
31 331 2 350 11 352 285 312 315 275 271 296 236 250 256 246 206 201 237 116 140 145 137 134 130 112 109 113 104 93 84 78 67 51 45 46 39 313 196 187 183 200 261
24 306 354 10 26 302 349 343 349 321 330 303 309 292 274 251 217 223 226 199 200 165 169 165 157 140 143 125 116 102 88 74 63 57 52 42 35 28 191 184 181 186 200
9 330 5 35 330 4 22 343 13 339 350 330 291 259 254 258 211 228 221 200 224 155 166 173 168 176 154 146 131 111 92 79 65 54 47 42 37 38 37 192 184 184 207
4 328 11 5 323 19 33 8 345 359 336 351 313 336 287 266 258 248 251 236 231 184 226 176 186 174 181 157 135 121 102 79 61 56 39 38 36 21 41 197 198 194 205
144 76 299 1 323 40 21 2 330 53 14 358 284 327 176 226 258 261 211 256 263 230 227 178 204 192 170 151 127 108 93 73 51 40 28 32 14 33 271 215 196 196 189
271 232 339 321 12 35 52 9 13 339 54 29 344 297 1 149 154 8 339 332 234 241 231 240 236 226 200 180 118 68 54 61 36 37 16 7 349 326 331 232 187 176 191
289 279 285 317 341 306 38 9 19 19 1 45 21 341 337 4 322 127 51 9 358 36 40 271 261 307 86 102 89 71 28 16 7 37 5 346 333 309 266 239 200 200 207
290 260 273 295 299 340 17 42 40 354 347 11 3 58 359 348 347 325 127 92 86 19 6 346 78 79 78 64 61 102 116 272 357 22 11 344 319 312 259 237 211 212 203
283 246 263 285 281 294 41 13 18 27 16 347 3 357 350 300 174 323 327 352 148 73 52 36 91 96 112 122 169 171 192 204 22 12 11 344 340 323 260 234 216 209 209
256 203 250 265 279 292 305 349 19 74 27 356 345 333 339 340 340 329 322 322 340 77 81 64 108 128 146 152 170 180 152 112 33 4 25 358 344 345 281 229 212 204 208
256 213 268 270 288 243 240 283 261 138 119 347 332 332 332 342 333 323 305 335 309 103 112 105 108 167 97 110 163 174 136 113 13 349 23 19 358 350 335 162 123 118 220
269 289 271 279 289 255 225 214 245 281 143 239 300 350 322 349 332 327 323 328 322 213 115 128 115 82 179 199 80 246 160 132 52 21 26 27 5 358 15 89 93 78 44
269 233 259 289 290 253 238 248 254 238 227 239 316 317 301 358 321 319 307 325 329 321 76 133 126 114 150 225 39 288 293 88 29 11 349 2 1 342 355 25 67 58 48
260 270 270 273 280 265 259 249 257 214 223 247 271 227 287 358 313 309 319 318 305 305 321 40 85 148 188 232 223 290 20 256 180 86 343 358 356 328 306 312 351 345 18
242 245 249 260 265 267 259 254 253 269 239 247 256 240 255 231 31 304 320 329 310 291 48 104 98 158 215 238 323 335 328 264 131 66 9 347 346 310 272 254 259 241 243
253 251 252 245 249 250 253 250 253 256 249 227 243 232 246 206 253 274 302 345 26 333 85 120 154 166 239 125 344 312 341 24 22 28 6 0 355 340 323 295 264 225 217
256 255 251 253 249 245 240 241 244 251 246 229 232 230 236 197 215 357 340 326 99 82 151 122 149 188 159 219 275 200 287 111 69 14 22 360 348 332 310 286 261 231 209
262 265 260 260 255 245 238 235 231 235 242 227 219 197 214 184 174 188 46 201 103 149 101 128 117 172 160 110 334 326 221 131 62 357 350 330 331 323 297 273 258 239 206
271 264 265 265 259 254 243 234 242 242 237 225 186 184 187 97 61 50 302 338 187 189 152 134 112 144 156 152 342 1 322 62 9 357 321 318 314 301 283 269 238 224 206
257 257 243 244 256 251 242 200 233 249 241 223 197 181 124 124 116 75 66 32 17 159 91 147 130 192 120 166 89 347 35 6 337 40 321 307 333 330 334 318 285 227 177
283 279 261 243 247 260 29 192 205 224 303 231 214 186 167 128 149 131 106 111 76 41 37 80 94 85 144 63 64 159 103 54 350 321 318 310 346 4 347 329 182 151 149
286 275 267 257 230 95 314 175 150 148 62 273 245 206 180 152 156 158 145 143 131 131 102 127 113 111 98 78 70 88 115 148 261 142 347 322 339 357 10 35 94 123 131
276 276 186 186 215 174 222 206 155 154 100 38 303 234 172 168 145 165 153 150 132 124 74 67 73 64 72 34 345 256 170 133 65 75 50 305 335 334 30 49 63 93 123
266 248 225 231 265 258 193 208 176 147 110 99 156 273 280 176 157 191 163 163 151 150 137 132 127 129 146 104 308 328 302 91 353 22 31 11 360 4 40 25 55 84 91